EFOU Weather Reports


Display with metric or nautical units.
time (UTC)temp
F
wind
direction
speed
MPH
gust
MPH
rain 1hr
in
rain 24hr
in
rain mn
in
humidity
%
barometer
mb
20260506144719 44 291 12.0 19.0 0.00 0.00 0.00 68 1010.1
20260506142718 43 322 10.0 19.0 0.00 0.00 0.00 63 1010.0
20260506140718 43 319 11.0 16.0 0.00 0.00 0.00 66 1009.9
20260506134718 42 311 12.0 15.0 0.00 0.00 0.00 66 1009.7
20260506132719 43 296 11.0 15.0 0.00 0.00 0.00 70 1009.4
20260506130718 41 303 10.0 14.0 0.00 0.00 0.00 76 1009.2
20260506124718 41 329 10.0 15.0 0.00 0.00 0.00 77 1009.0
20260506122718 41 331 9.0 12.0 0.00 0.00 0.00 78 1008.7
20260506120718 41 332 9.0 13.0 0.00 0.00 0.00 81 1008.6
20260506114718 40 313 8.0 13.0 0.00 0.00 0.00 84 1008.1
20260506112719 40 323 8.0 11.0 0.00 0.00 0.00 86 1007.9
20260506110718 40 320 8.0 11.0 0.00 0.00 0.00 86 1007.7
20260506104718 39 283 9.0 13.0 0.00 0.00 0.00 91 1007.4
20260506102718 39 292 9.0 13.0 0.00 0.00 0.00 90 1007.1
20260506100718 40 288 6.0 12.0 0.00 0.00 0.00 91 1006.8
20260506094718 39 285 8.0 14.0 0.00 0.00 0.00 91 1006.5
20260506092718 38 277 7.0 11.0 0.00 0.00 0.00 93 1006.2
20260506090718 37 285 8.0 11.0 0.00 0.00 0.00 93 1006.0
20260506084718 37 279 7.0 11.0 0.00 0.00 0.00 95 1005.8
20260506082718 37 284 7.0 11.0 0.00 0.00 0.00 94 1005.5
20260506080718 37 278 6.0 10.0 0.00 0.00 0.00 93 1005.2
20260506072718 36 264 7.0 11.0 0.00 0.00 0.00 91 1004.5
20260506070718 36 267 8.0 12.0 0.00 0.00 0.00 91 1004.2
20260506060717 37 279 11.0 17.0 0.00 0.00 0.00 94 1003.2
20260506050717 37 289 10.0 13.0 0.00 0.00 0.00 94 1002.5
20260506044717 36 286 11.0 18.0 0.00 0.00 0.00 92 1002.3
20260506042717 36 288 9.0 14.0 0.00 0.00 0.00 93 1002.1
20260506040717 36 290 11.0 16.0 0.00 0.00 0.00 93 1001.9
20260506034717 36 293 11.0 15.0 0.00 0.00 0.00 92 1001.7
20260506032717 36 290 10.0 14.0 0.00 0.00 0.00 92 1001.6
20260506030717 37 293 10.0 15.0 0.00 0.00 0.00 92 1001.4
20260506024717 37 292 10.0 17.0 0.00 0.00 0.00 90 1001.3
20260506022717 37 291 11.0 17.0 0.00 0.00 0.00 89 1001.1
20260506020716 37 295 9.0 13.0 0.00 0.00 0.00 90 1001.0
20260506014717 37 292 11.0 16.0 0.00 0.00 0.00 90 1000.9
20260506012716 38 292 9.0 13.0 0.00 0.00 0.00 89 1000.8
20260506010716 38 287 9.0 13.0 0.00 0.00 0.00 88 1000.7
20260506004716 37 289 11.0 17.0 0.00 0.00 0.00 89 1000.5
20260506002716 37 290 10.0 16.0 0.00 0.00 0.00 90 1000.5
20260506000716 37 289 13.0 22.0 0.00 0.00 0.00 90 1000.4
20260505234716 37 289 13.0 21.0 0.00 0.00 0.00 90 1000.3
20260505232716 38 289 15.0 22.0 0.00 0.00 0.00 90 1000.2
20260505230716 37 283 13.0 19.0 0.00 0.00 0.00 92 1000.3
20260505224716 38 288 15.0 23.0 0.00 0.00 0.00 88 1000.2
20260505222716 39 293 13.0 19.0 0.00 0.00 0.00 83 1000.2
20260505220716 39 292 12.0 18.0 0.00 0.00 0.00 84 1000.2
20260505214716 38 289 12.0 19.0 0.00 0.00 0.00 84 1000.1
20260505212716 38 292 12.0 17.0 0.00 0.00 0.00 84 1000.1
20260505210716 38 288 10.0 16.0 0.00 0.00 0.00 84 1000.0
20260505204716 39 287 11.0 17.0 0.00 0.00 0.00 81 999.8
20260505202716 38 264 8.0 13.0 0.00 0.00 0.00 82 999.8
20260505200716 39 269 9.0 16.0 0.00 0.00 0.00 81 999.7
20260505194715 39 281 9.0 15.0 0.00 0.00 0.00 79 999.6
20260505192715 40 274 9.0 16.0 0.00 0.00 0.00 77 999.6
20260505190715 39 276 6.0 11.0 0.00 0.00 0.00 77 999.6
20260505184715 40 287 10.0 15.0 0.00 0.00 0.00 73 999.5
20260505182715 41 280 12.0 21.0 0.00 0.00 0.00 69 999.2
20260505180715 42 280 12.0 22.0 0.00 0.00 0.00 64 999.1
20260505174715 42 280 14.0 21.0 0.00 0.00 0.00 62 999.0
20260505172715 42 278 15.0 26.0 0.00 0.00 0.00 63 998.9
20260505170715 42 286 14.0 21.0 0.00 0.00 0.00 67 998.8
20260505164715 42 279 16.0 25.0 0.00 0.00 0.00 68 998.7
20260505162715 43 283 13.0 18.0 0.00 0.00 0.00 65 998.4
20260505160715 43 283 16.0 25.0 0.00 0.00 0.00 65 998.3
20260505152714 44 277 16.0 26.0 0.00 0.00 0.00 61 998.0
20260505150715 44 281 18.0 25.0 0.00 0.00 0.00 61 997.8